User: anonymous   Login
Location: Observatorio Las Palmas
(29.0667°N, 110.9333°W)
Time: 19:04:22
(UTC-07:00)
Language:

NOAA 19 - Orbit

View from above orbital plane
View from above orbital plane
View from above satellite
View from above satellite

Ground track
Ground track

The orbit data is extracted from the following two-line orbital elements,

1 33591U 09005A   15210.47164436  .00000068  00000-0  61984-4 0  9995
2 33591 098.9924 160.4579 0015014 053.4408 306.8142 14.11960579333456
Epoch (UTC): 29 July 2015 11:19:10
Eccentricity: 0.0015014
inclination: 98.9924°
perigee height: 842 km
apogee height: 863 km
right ascension of ascending node: 160.4579°
argument of perigee: 53.4408°
revolutions per day: 14.11960579
mean anomaly at epoch: 306.8142°
orbit number at epoch: 33345

The dashed part of the orbit path shows where the satellite is in the earth's shadow,  

DLR